Total_Precipitation_Accumulation
0.26 0.20 0.28 0.31 0.27 0.29 0.38 0.36 0.26 0.09 0.04 0.05 0.07 0.07 0.06 0.05 0.04 0.03 0.03 0.03 0.02 0.03 0.05 0.08 0.11 0.13 0.18 0.19 0.18 0.18 0.21 0.30 0.39 0.42 0.45 0.50 0.53 0.58 0.64 0.68 0.67 0.63 0.59 0.55
0.27 0.17 0.21 0.22 0.18 0.20 0.22 0.18 0.14 0.07 0.04 0.03 0.04 0.05 0.05 0.05 0.05 0.04 0.04 0.04 0.04 0.04 0.05 0.07 0.12 0.18 0.22 0.25 0.26 0.29 0.35 0.41 0.48 0.52 0.54 0.55 0.56 0.60 0.69 0.74 0.75 0.72 0.66 0.58
0.39 0.24 0.34 0.31 0.14 0.12 0.13 0.10 0.10 0.09 0.05 0.03 0.04 0.05 0.06 0.06 0.08 0.08 0.06 0.06 0.06 0.06 0.06 0.10 0.19 0.27 0.25 0.27 0.31 0.37 0.43 0.44 0.43 0.46 0.53 0.52 0.50 0.53 0.60 0.63 0.60 0.59 0.57 0.49
0.49 0.42 0.62 0.26 0.09 0.06 0.09 0.09 0.10 0.10 0.07 0.05 0.05 0.05 0.06 0.08 0.08 0.07 0.08 0.09 0.09 0.10 0.10 0.12 0.17 0.21 0.19 0.21 0.27 0.32 0.35 0.41 0.43 0.43 0.47 0.51 0.48 0.42 0.42 0.44 0.46 0.43 0.40 0.36
0.62 0.50 0.31 0.12 0.10 0.11 0.13 0.14 0.14 0.12 0.09 0.06 0.04 0.04 0.06 0.08 0.07 0.07 0.07 0.08 0.08 0.09 0.11 0.12 0.13 0.14 0.15 0.16 0.21 0.27 0.30 0.32 0.36 0.37 0.40 0.43 0.46 0.40 0.34 0.33 0.35 0.36 0.34 0.29
0.69 0.53 0.25 0.15 0.12 0.12 0.13 0.20 0.17 0.12 0.10 0.08 0.10 0.22 0.14 0.10 0.07 0.07 0.05 0.04 0.05 0.05 0.07 0.09 0.10 0.12 0.12 0.12 0.16 0.21 0.21 0.21 0.21 0.23 0.28 0.28 0.28 0.29 0.27 0.27 0.27 0.28 0.30 0.29
0.61 0.45 0.16 0.10 0.10 0.14 0.27 0.34 0.23 0.16 0.14 0.15 0.22 0.29 0.18 0.09 0.07 0.06 0.04 0.04 0.03 0.04 0.06 0.09 0.10 0.10 0.08 0.09 0.12 0.15 0.14 0.11 0.11 0.13 0.15 0.16 0.18 0.20 0.23 0.24 0.25 0.25 0.25 0.27
0.49 0.49 0.21 0.12 0.15 0.27 0.36 0.23 0.18 0.17 0.15 0.17 0.13 0.08 0.05 0.05 0.05 0.04 0.04 0.04 0.04 0.06 0.07 0.09 0.08 0.07 0.06 0.08 0.09 0.10 0.11 0.08 0.09 0.10 0.11 0.13 0.16 0.19 0.22 0.23 0.26 0.27 0.27 0.28
0.36 0.26 0.13 0.15 0.20 0.20 0.17 0.15 0.13 0.15 0.14 0.16 0.13 0.07 0.05 0.04 0.04 0.03 0.04 0.04 0.05 0.08 0.09 0.08 0.05 0.04 0.04 0.06 0.07 0.08 0.10 0.09 0.09 0.11 0.13 0.14 0.16 0.18 0.23 0.25 0.28 0.30 0.29 0.29
0.18 0.11 0.11 0.12 0.14 0.13 0.11 0.11 0.10 0.11 0.15 0.16 0.14 0.09 0.06 0.04 0.03 0.03 0.04 0.05 0.08 0.08 0.07 0.06 0.04 0.03 0.03 0.04 0.06 0.09 0.11 0.12 0.11 0.13 0.14 0.15 0.17 0.18 0.22 0.27 0.36 0.41 0.38 0.34
0.11 0.06 0.07 0.09 0.10 0.10 0.08 0.07 0.07 0.06 0.07 0.11 0.10 0.08 0.06 0.05 0.04 0.05 0.06 0.06 0.07 0.06 0.05 0.04 0.03 0.03 0.03 0.03 0.05 0.09 0.12 0.15 0.15 0.16 0.16 0.17 0.18 0.18 0.21 0.24 0.39 0.55 0.49 0.47
0.09 0.06 0.05 0.05 0.05 0.07 0.08 0.07 0.09 0.09 0.06 0.05 0.06 0.06 0.06 0.06 0.06 0.07 0.07 0.07 0.06 0.05 0.04 0.02 0.03 0.03 0.03 0.03 0.05 0.08 0.13 0.16 0.18 0.19 0.18 0.18 0.19 0.20 0.21 0.22 0.28 0.32 0.35 0.44
0.03 0.03 0.03 0.02 0.03 0.04 0.06 0.08 0.09 0.09 0.07 0.06 0.05 0.05 0.06 0.06 0.07 0.07 0.07 0.07 0.06 0.04 0.03 0.03 0.03 0.03 0.04 0.04 0.05 0.09 0.14 0.17 0.20 0.20 0.21 0.21 0.21 0.24 0.24 0.22 0.24 0.24 0.26 0.32
0.01 0.02 0.02 0.02 0.03 0.03 0.05 0.06 0.07 0.07 0.06 0.05 0.04 0.04 0.05 0.06 0.06 0.07 0.07 0.06 0.04 0.04 0.03 0.04 0.04 0.04 0.04 0.05 0.07 0.09 0.14 0.19 0.22 0.21 0.23 0.24 0.25 0.26 0.27 0.27 0.27 0.24 0.25 0.28
0.02 0.02 0.02 0.02 0.02 0.03 0.04 0.05 0.06 0.06 0.04 0.03 0.03 0.04 0.06 0.06 0.07 0.08 0.07 0.06 0.04 0.04 0.04 0.04 0.05 0.05 0.05 0.06 0.08 0.10 0.14 0.20 0.24 0.25 0.25 0.25 0.26 0.28 0.29 0.28 0.27 0.24 0.24 0.29
0.03 0.02 0.02 0.02 0.02 0.03 0.04 0.05 0.06 0.06 0.05 0.04 0.04 0.05 0.06 0.06 0.07 0.07 0.06 0.04 0.03 0.03 0.04 0.05 0.07 0.07 0.06 0.07 0.10 0.12 0.15 0.23 0.29 0.30 0.29 0.30 0.30 0.31 0.32 0.33 0.31 0.29 0.29 0.30
0.04 0.03 0.02 0.02 0.02 0.04 0.04 0.05 0.06 0.07 0.05 0.04 0.05 0.06 0.06 0.06 0.05 0.05 0.05 0.05 0.04 0.03 0.04 0.06 0.08 0.09 0.09 0.10 0.13 0.14 0.17 0.22 0.29 0.31 0.32 0.34 0.38 0.37 0.37 0.39 0.38 0.34 0.29 0.29
0.05 0.05 0.05 0.05 0.05 0.05 0.06 0.06 0.06 0.07 0.05 0.05 0.05 0.06 0.07 0.07 0.06 0.06 0.06 0.05 0.05 0.04 0.04 0.05 0.09 0.10 0.11 0.12 0.15 0.16 0.20 0.25 0.29 0.33 0.36 0.38 0.42 0.41 0.40 0.41 0.39 0.36 0.29 0.28
0.04 0.05 0.05 0.05 0.07 0.08 0.07 0.05 0.05 0.06 0.06 0.05 0.06 0.07 0.08 0.09 0.08 0.08 0.07 0.06 0.06 0.06 0.05 0.07 0.11 0.11 0.12 0.16 0.21 0.23 0.28 0.33 0.34 0.33 0.34 0.40 0.43 0.39 0.40 0.41 0.40 0.37 0.34 0.32
0.05 0.05 0.06 0.07 0.07 0.08 0.07 0.06 0.05 0.06 0.06 0.06 0.07 0.09 0.10 0.10 0.10 0.10 0.10 0.09 0.08 0.09 0.07 0.09 0.11 0.12 0.15 0.20 0.28 0.32 0.35 0.36 0.37 0.37 0.38 0.41 0.43 0.42 0.41 0.42 0.42 0.41 0.39 0.37
0.07 0.07 0.08 0.08 0.07 0.07 0.08 0.08 0.09 0.09 0.08 0.08 0.10 0.12 0.13 0.13 0.13 0.12 0.12 0.12 0.11 0.12 0.11 0.12 0.13 0.18 0.23 0.29 0.34 0.33 0.34 0.37 0.40 0.43 0.44 0.45 0.45 0.44 0.43 0.44 0.46 0.46 0.46 0.44
0.10 0.11 0.12 0.12 0.10 0.09 0.09 0.10 0.11 0.11 0.11 0.11 0.13 0.15 0.16 0.16 0.15 0.15 0.14 0.13 0.14 0.18 0.17 0.15 0.17 0.26 0.30 0.32 0.29 0.31 0.34 0.38 0.42 0.45 0.46 0.47 0.50 0.51 0.50 0.49 0.52 0.51 0.50 0.49
0.14 0.15 0.15 0.14 0.13 0.12 0.11 0.11 0.12 0.13 0.14 0.15 0.16 0.17 0.18 0.19 0.19 0.18 0.19 0.17 0.17 0.21 0.21 0.20 0.25 0.29 0.31 0.29 0.27 0.30 0.35 0.41 0.45 0.49 0.51 0.52 0.54 0.56 0.57 0.56 0.56 0.56 0.55 0.54
0.17 0.16 0.15 0.14 0.14 0.13 0.12 0.12 0.12 0.13 0.14 0.14 0.16 0.17 0.19 0.20 0.19 0.19 0.21 0.23 0.24 0.25 0.24 0.27 0.30 0.31 0.32 0.30 0.32 0.36 0.43 0.49 0.54 0.57 0.58 0.58 0.58 0.58 0.60 0.61 0.62 0.58 0.56 0.54
0.20 0.19 0.16 0.15 0.15 0.16 0.15 0.14 0.13 0.13 0.14 0.14 0.15 0.17 0.20 0.21 0.23 0.24 0.25 0.27 0.29 0.29 0.30 0.32 0.34 0.36 0.34 0.36 0.41 0.47 0.53 0.59 0.67 0.71 0.68 0.65 0.62 0.61 0.60 0.61 0.63 0.61 0.59 0.55
0.23 0.22 0.20 0.19 0.19 0.19 0.18 0.18 0.17 0.17 0.17 0.18 0.19 0.20 0.22 0.24 0.26 0.27 0.28 0.31 0.33 0.33 0.33 0.35 0.38 0.41 0.43 0.46 0.51 0.55 0.58 0.60 0.65 0.68 0.66 0.66 0.65 0.64 0.63 0.63 0.62 0.61 0.58 0.54
0.24 0.23 0.21 0.19 0.20 0.21 0.22 0.23 0.23 0.24 0.24 0.25 0.26 0.26 0.27 0.29 0.30 0.30 0.31 0.33 0.36 0.36 0.36 0.39 0.41 0.44 0.48 0.54 0.58 0.61 0.63 0.63 0.66 0.72 0.74 0.72 0.69 0.69 0.67 0.66 0.64 0.62 0.59 0.57